TimeCDT,TemperatureF,Dew PointF,Humidity,Sea Level PressureIn,VisibilityMPH,Wind Direction,Wind SpeedMPH,Gust SpeedMPH,PrecipitationIn,Events,Conditions,WindDirDegrees,DateUTC
12:54 AM,48.0,41.0,77,30.11,10.0,Calm,Calm,-,N/A,,Clear,0,2013-04-06 05:54:00
1:54 AM,50.0,41.0,71,30.10,10.0,Calm,Calm,-,N/A,,Partly Cloudy,0,2013-04-06 06:54:00
2:54 AM,48.9,39.0,69,30.08,10.0,Calm,Calm,-,N/A,,Scattered Clouds,0,2013-04-06 07:54:00
3:54 AM,46.0,39.9,79,30.08,10.0,Calm,Calm,-,N/A,,Partly Cloudy,0,2013-04-06 08:54:00
4:54 AM,48.0,39.0,71,30.07,10.0,East,4.6,-,N/A,,Scattered Clouds,100,2013-04-06 09:54:00
5:54 AM,46.9,39.0,74,30.07,10.0,Calm,Calm,-,N/A,,Mostly Cloudy,0,2013-04-06 10:54:00
6:54 AM,48.0,37.9,68,30.09,10.0,South,3.5,-,N/A,,Mostly Cloudy,180,2013-04-06 11:54:00
7:54 AM,52.0,39.9,63,30.10,10.0,SSE,5.8,-,N/A,,Mostly Cloudy,160,2013-04-06 12:54:00
8:54 AM,59.0,41.0,51,30.10,10.0,SSE,8.1,-,N/A,,Mostly Cloudy,150,2013-04-06 13:54:00
9:54 AM,63.0,39.9,43,30.10,10.0,South,12.7,-,N/A,,Mostly Cloudy,180,2013-04-06 14:54:00
10:54 AM,68.0,41.0,37,30.10,10.0,South,13.8,24.2,N/A,,Mostly Cloudy,190,2013-04-06 15:54:00
11:54 AM,71.1,39.9,32,30.08,10.0,South,17.3,26.5,N/A,,Mostly Cloudy,190,2013-04-06 16:54:00
12:54 PM,72.0,39.9,31,30.06,10.0,SSW,15.0,19.6,N/A,,Mostly Cloudy,210,2013-04-06 17:54:00
1:54 PM,73.0,39.9,30,30.04,10.0,SSW,17.3,25.3,N/A,,Mostly Cloudy,200,2013-04-06 18:54:00
2:54 PM,73.0,39.0,29,30.00,10.0,SSW,18.4,28.8,N/A,,Mostly Cloudy,210,2013-04-06 19:54:00
3:54 PM,73.9,36.0,25,29.96,10.0,South,21.9,25.3,N/A,,Mostly Cloudy,180,2013-04-06 20:54:00
4:54 PM,73.0,35.1,25,29.95,10.0,SSW,15.0,23.0,N/A,,Scattered Clouds,210,2013-04-06 21:54:00
5:54 PM,72.0,36.0,27,29.94,10.0,SSW,12.7,24.2,N/A,,Partly Cloudy,210,2013-04-06 22:54:00
6:54 PM,70.0,37.0,30,29.94,10.0,SSW,12.7,-,N/A,,Partly Cloudy,200,2013-04-06 23:54:00
7:54 PM,66.0,39.0,37,29.94,10.0,SSW,8.1,-,N/A,,Scattered Clouds,200,2013-04-07 00:54:00
8:54 PM,63.0,39.9,43,29.95,10.0,SSW,5.8,-,N/A,,Partly Cloudy,200,2013-04-07 01:54:00
9:54 PM,61.0,42.1,50,29.97,10.0,SSW,4.6,-,N/A,,Partly Cloudy,210,2013-04-07 02:54:00
10:54 PM,57.9,43.0,58,29.99,10.0,SSW,6.9,-,N/A,,Partly Cloudy,200,2013-04-07 03:54:00
11:54 PM,57.0,43.0,59,29.98,10.0,South,9.2,-,N/A,,Partly Cloudy,180,2013-04-07 04:54:00